Voltar ao catálogo

COSMOS 970 DEB

AtivoLEO
NORAD 10879·DEBRIS·🇷🇺 Russia

Lançado Dec 21, 1977 de Baikonur Cosmodrome

Loading…

Próximas Passagens (próximas 24 horas)

TLE

AtualizadoSource: Space-Track

Época: Sep 14, 2026, 08:20 UTC

1 10879U 77121AA  26257.34766223  .00000229  00000-0  29954-3 0  9993
2 10879  65.8246 247.3780 0109423  95.9075 265.4473 13.77128544642873

Acompanhe COSMOS 970 DEB em tempo real com AllMySat

Download on the App Store